This demonstration page uses our WeatherBlox Daily Observations layout. Learn more.

36.17497, -115.13722

Hourly Observations for September 10, 2018

Temp ( °F °C ) Dew Point ( °F °C ) Humidity (%) Winds ( mph kmh ) Pressure ( in mb ) Visibility ( mi km ) Precip ( " mm )
12:53 am 00:53 Clear 82 27.8 32 0 16 16 N 6 9 29.74 1007 10 16.09344 0 0
1:53 am 01:53 Clear 79 26.1 32 0 18 18 NNW 6 9 29.74 1007 10 16.09344 0 0
2:53 am 02:53 Clear 79 26.1 32 0 18 18 Calm 29.74 1007 10 16.09344 0 0
3:53 am 03:53 Clear 77 25 32 0 19 19 NNW 6 9 29.77 1008 10 16.09344 0 0
4:53 am 04:53 Clear 75 23.9 33 0.6 22 22 NNW 5 7 29.77 1008 10 16.09344 0 0
5:53 am 05:53 Clear 75 23.9 33 0.6 22 22 NW 7 11 29.77 1008 10 16.09344 0 0
6:53 am 06:53 Sunny 75 23.9 31 -0.6 20 20 NNW 3 6 29.8 1009 10 16.09344 0 0
7:53 am 07:53 Sunny 80 26.7 35 1.7 20 20 N 3 6 29.83 1010 10 16.09344 0 0
8:53 am 08:53 Sunny 84 28.9 35 1.7 17 17 Calm 29.83 1010 10 16.09344 0 0
9:53 am 09:53 Sunny 88 31.1 33 0.6 14 14 SE 7 11 29.83 1010 10 16.09344 0 0
10:53 am 10:53 Sunny 91 32.8 32 0 12 12 N 5 7 29.83 1010 10 16.09344 0 0
11:53 am 11:53 Sunny 95 35 33 0.6 11 11 SE 7 11 29.8 1009 10 16.09344 0 0
12:53 pm 12:53 Sunny 97 36.1 32 0 10 10 SSE 5 7 29.77 1008 10 16.09344 0 0
1:53 pm 13:53 Sunny 100 37.8 32 0 9 9 S 16 26 29.74 1007 10 16.09344 0 0
2:53 pm 14:53 Sunny 103 39.4 27 -2.8 7 7 S 15 24 29.71 1006 10 16.09344 0 0
3:53 pm 15:53 Sunny 101 38.3 24 -4.4 6 6 S 9 15 29.68 1005 10 16.09344 0 0
4:53 pm 16:53 Sunny 102 38.9 23 -5 6 6 WSW 14 22 29.68 1005 10 16.09344 0 0
5:53 pm 17:53 Sunny 101 38.3 19 -7.2 5 5 SW 13 20 29.68 1005 10 16.09344 0 0
6:53 pm 18:53 Sunny 98 36.7 16 -8.9 5 5 WSW 7 11 29.68 1005 10 16.09344 0 0
7:53 pm 19:53 Clear 96 35.6 16 -8.9 5 5 WSW 6 9 29.68 1005 10 16.09344 0 0
8:53 pm 20:53 Clear 90 32.2 19 -7.2 7 7 S 7 11 29.71 1006 10 16.09344 0 0
9:53 pm 21:53 Clear 88 31.1 21 -6.1 8 8 S 8 13 29.71 1006 10 16.09344 0 0
10:53 pm 22:53 Clear 88 31.1 20 -6.7 8 8 S 10 17 29.71 1006 10 16.09344 0 0
11:53 pm 23:53 Clear 84 28.9 22 -5.6 10 10 N 6 9 29.71 1006 10 16.09344 0 0

Powered by AerisWeather